Weather History for KROA - June, 2012

Change the Weather History Date:

Tuesday, June 5, 2012

  Actual Average Record
Temperature  
Mean Temperature 65 °F 70 °F  
Max Temperature 73 °F 81 °F 98 °F (1925)
Min Temperature 57 °F 60 °F 41 °F (1976)
Degree Days  
Heating Degree Days 0 1  
Month to date heating degree days 3 5  
Since 1 June heating degree days 3 5  
Since 1 July heating degree days 3185 4138  
Cooling Degree Days 0 6  
Month to date cooling degree days 13 28  
Year to date cooling degree days 215 144  
Since 1 June cooling degree days 13 28  
Growing Degree Days 15 (Base 50)    
Moisture  
Dew Point 52 °F    
Average Humidity 65    
Maximum Humidity 86    
Minimum Humidity 44    
Precipitation  
Precipitation 0.20 in 0.14 in 1.03 in (2000)
Month to date precipitation 0.43 0.71  
Year to date precipitation 14.92 17.41  
Snow  
Snow 0.00 in - - ()
Month to date snowfall 0.0  
Since 1 June snowfall 0.0  
Since 1 July snowfall 6.1  
Snow Depth 0.00 in    
Sea Level Pressure  
Sea Level Pressure 29.86 in    
Wind  
Wind Speed 4 mph (ENE)    
Max Wind Speed 17 mph    
Max Gust Speed 22 mph    
Visibility 10 miles    
Events Rain    
T = Trace of Precipitation, MM = Missing Value Source: NWS Daily Summary

Daily Weather History Graph

Daily Weather History Graph

Search for Another Location

Airport or City:

Trip Planner

Search our weather history database for the weather conditions in past years. The results will help you decide how hot, cold, wet, or windy it might be!

Date:

Astronomy

Jun. 05, 2012 Rise Set
Actual Time 5:59 AM EDT 8:37 PM EDT
Civil Twilight 5:28 AM EDT 9:08 PM EDT
Nautical Twilight 4:50 AM EDT 9:46 PM EDT
Astronomical Twilight 4:08 AM EDT 10:29 PM EDT
Moon 10:02 PM EDT 7:09 AM EDT
Length of Visible Light 15h 39m
Length of Day
14h 38m
Full, 98% of the Moon is Illuminated
Jun 5
Full
Jun 11
Last Quarter
Jun 19
New
Jun 26
First Quarter
Jul 3
Full

Hourly Weather History & Observations

Time (EDT) Temp. Dew Point Humidity Pressure Visibility Wind Dir Wind Speed Gust Speed Precip Events Conditions
12:54 AM 62.1 °F 55.0 °F 78% 29.78 in 10.0 mi Calm Calm - N/A   Clear
1:54 AM 59.0 °F 54.0 °F 83% 29.78 in 10.0 mi Calm Calm - N/A   Clear
2:54 AM 57.9 °F 54.0 °F 87% 29.78 in 10.0 mi WNW 3.5 mph - N/A   Clear
3:54 AM 57.9 °F 54.0 °F 87% 29.78 in 10.0 mi Calm Calm - N/A   Overcast
4:54 AM 60.1 °F 53.1 °F 78% 29.78 in 10.0 mi NE 3.5 mph - N/A   Overcast
5:54 AM 60.1 °F 52.0 °F 75% 29.81 in 10.0 mi Calm Calm - N/A   Overcast
6:54 AM 60.1 °F 51.1 °F 72% 29.82 in 10.0 mi North 4.6 mph - 0.00 in   Overcast
7:54 AM 60.1 °F 51.1 °F 72% 29.84 in 10.0 mi Calm Calm - N/A   Mostly Cloudy
8:54 AM 64.4 °F 51.8 °F 64% 29.88 in 10.0 mi NNE 6.9 mph - N/A   Scattered Clouds
9:54 AM 64.9 °F 50.0 °F 58% 29.87 in 10.0 mi East 6.9 mph - N/A   Mostly Cloudy
10:54 AM 66.9 °F 48.0 °F 51% 29.87 in 10.0 mi Calm Calm - N/A   Scattered Clouds
11:54 AM 66.9 °F 48.0 °F 51% 29.87 in 10.0 mi Variable 3.5 mph - N/A   Overcast
12:54 PM 69.1 °F 48.9 °F 49% 29.87 in 10.0 mi SE 6.9 mph - N/A   Scattered Clouds
1:54 PM 69.1 °F 51.1 °F 53% 29.86 in 10.0 mi ESE 5.8 mph - N/A   Overcast
2:54 PM 71.1 °F 48.9 °F 45% 29.85 in 10.0 mi Variable 4.6 mph - N/A   Scattered Clouds
3:54 PM 71.1 °F 51.1 °F 49% 29.84 in 10.0 mi East 10.4 mph - N/A   Scattered Clouds
4:54 PM 69.1 °F 50.0 °F 51% 29.85 in 10.0 mi SE 6.9 mph - N/A   Mostly Cloudy
5:54 PM 62.1 °F 55.0 °F 78% 29.87 in 10.0 mi SE 6.9 mph - 0.17 in Rain Light Rain
6:54 PM 64.0 °F 54.0 °F 70% 29.89 in 10.0 mi ESE 4.6 mph - 0.01 in   Scattered Clouds
7:54 PM 61.0 °F 55.0 °F 81% 29.91 in 10.0 mi NE 6.9 mph - N/A   Mostly Cloudy
8:54 PM 61.0 °F 53.1 °F 75% 29.91 in 10.0 mi ENE 6.9 mph - N/A   Overcast
9:54 PM 60.1 °F 54.0 °F 80% 29.93 in 10.0 mi NE 4.6 mph - 0.00 in Rain Light Rain
10:50 PM 60.8 °F 53.6 °F 77% 29.97 in 10.0 mi ENE 4.6 mph - 0.00 in   Overcast
10:54 PM 60.1 °F 53.1 °F 78% 29.95 in 10.0 mi ENE 5.8 mph - 0.00 in   Overcast
11:54 PM 59.0 °F 54.0 °F 83% 29.97 in 10.0 mi Calm Calm - 0.00 in Rain Light Rain